[[{"header":{"parameterUnit":"m.s-1","parameterCategory":1,"la1":30.2991,"la2":30.254,"lo1":-89.0895,"lo2":-89.0444,"dy":0.0017,"dx":0.0017,"nx":28,"ny":28,"refTime":"2024-07-17T09:00:00:Z","depth":0,"parameterNumber":2,"parameterNumberName":"U-component_of_WINDS"},"data":[0,0,0,0,0,0,0,0,0,0,0,0,0,0,0,0,0,0,0,0,0,0,0,0,0,0,0,0,0,0,0,0,0,0,0,0,0,0,0,0,0,0,0,0,0,0,0,0,0,0,0,0,0,0,0,0,0,0,3.5469,3.547,0,3.5574,3.5575,3.5577,3.554,3.5537,3.5535,3.5533,3.5639,3.5644,3.5649,0,0,0,0,0,0,0,0,0,0,0,0,0,3.5232,3.5236,3.5468,3.547,3.5471,3.5574,3.5575,3.5577,3.554,3.5537,3.5534,3.5532,3.5637,3.5643,3.5649,0,0,0,0,0,0,0,0,0,0,0,0,0,3.5335,3.5238,3.5468,3.5465,3.5466,3.5574,3.5575,3.5577,3.5541,3.5537,3.5534,3.553,3.5635,3.5643,3.565,3.5766,0,0,3.5673,3.5676,0,0,0,0,0,0,0,0,3.533,3.5344,3.5464,3.5466,3.5467,3.554,3.5531,3.5641,3.5541,3.5512,3.5533,3.5529,3.5609,3.5618,3.5646,3.5771,3.5776,3.5674,3.5678,3.5681,3.5684,0,0,0,0,0,0,0,3.5322,3.5339,3.551,3.5466,3.5468,3.5457,3.5468,3.5551,3.5579,3.5514,3.5512,3.5525,3.5609,3.5639,3.5648,3.5778,3.5673,3.568,3.5685,3.5688,3.6001,3.6005,0,0,0,0,0,0,3.5315,3.5334,3.5507,3.5513,3.5388,3.5465,3.5477,3.552,3.5578,3.5583,3.5528,3.5523,3.5627,3.5639,3.5651,3.5789,3.5681,3.5688,3.5693,3.5997,3.6002,3.6006,0,0,0,0,0,0,3.531,3.5331,3.5503,3.5423,3.5444,3.5472,3.5521,3.5524,3.5554,3.5588,3.5592,3.5554,3.5625,3.5641,3.5738,3.5792,3.5692,3.5699,3.5993,3.5999,3.6004,3.6066,0,0,0,0,0,0,3.5303,3.5329,3.5375,3.5424,3.5448,3.5588,3.5525,3.5529,3.5567,3.5561,3.5613,3.5618,3.5624,3.5727,3.5745,3.5801,3.5704,3.5988,3.5995,3.6002,3.6059,3.6073,3.6085,0,0,0,0,0,3.5295,3.5388,3.5377,3.5398,3.5506,3.5591,3.5605,3.5609,3.5572,3.5616,3.5638,3.5617,3.5784,3.5737,3.5757,3.5816,3.5984,3.5993,3.6001,3.6053,3.607,3.6085,0,0,0,0,0,0,3.5344,3.5395,3.5383,3.5495,3.5539,3.5585,3.5641,3.5628,3.5683,3.5675,3.5678,3.569,3.5789,3.5813,3.5759,3.593,3.5878,3.5891,3.5911,3.5927,3.594,3.5931,3.5711,0,0,0,0,0,3.5368,3.5434,3.5474,3.5569,3.5592,3.5613,3.5651,3.565,3.5696,3.5714,3.5743,3.5787,3.5849,3.589,3.5949,3.6063,3.6072,3.6114,3.6127,3.6137,3.6147,3.6206,3.6224,3.6034,3.6034,3.6034,0,0,3.5417,3.5453,3.5495,3.558,3.5614,3.568,3.5629,3.5702,3.5751,3.5725,3.5817,3.584,3.589,3.5995,3.6042,3.6017,3.6202,3.6148,3.6156,3.6161,3.6217,3.6235,3.6251,3.604,3.6039,3.6038,0,0,3.5541,3.5576,3.5658,3.5693,3.5745,3.5759,3.5778,3.5826,3.584,3.5933,3.5914,3.5972,3.608,3.6115,3.6147,3.6283,3.6264,3.6303,3.637,3.6427,3.6442,3.6455,3.65,3.6517,3.6314,3.6314,3.6314,0,3.5595,3.5696,3.5701,3.5775,3.5812,3.5792,3.5873,3.5907,3.5976,3.6001,3.5973,3.6106,3.6139,3.625,3.6283,3.6311,3.6331,3.6296,3.644,3.6453,3.6465,3.6508,3.6526,3.6318,3.6318,3.6317,3.6317,0,3.5759,3.5829,3.5888,3.5955,3.5999,3.6077,3.6092,3.6136,3.6132,3.6148,3.6241,3.6279,3.6345,3.6372,3.6369,3.6483,3.6465,3.6439,3.6386,3.6487,3.6528,3.6545,3.6324,3.6322,3.6321,3.632,0,0,3.5915,3.5983,3.6004,3.6033,3.6089,3.6143,3.6219,3.6283,3.6319,3.6368,3.643,3.6521,3.6496,3.6533,3.6534,3.6585,3.6686,3.6551,3.6552,3.6572,3.681,3.6827,3.6846,3.6675,3.6679,3.6681,3.6804,0,3.604,3.6174,3.618,3.6301,3.6364,3.6346,3.6412,3.6453,3.647,3.6525,3.6544,3.6607,3.6571,3.6592,3.6642,3.6663,3.6733,3.6655,3.673,3.6733,3.6715,3.6868,3.6887,3.7001,3.6821,3.6823,3.6825,0,3.6204,3.6257,3.6384,3.6429,3.6456,3.6515,3.6573,3.6627,3.6672,3.6681,3.6722,3.6715,3.6791,3.6738,3.6841,3.6788,3.6819,3.6834,3.6839,3.6843,3.6783,3.6873,3.7038,3.7054,3.6851,3.6849,3.6847,0,3.63,3.6404,3.6492,3.6518,3.6574,3.6616,3.6641,3.6683,3.672,3.6771,3.6795,3.6855,3.6886,3.6932,3.6941,3.6902,3.7043,3.6992,3.705,3.705,3.7078,3.7076,3.7247,3.7105,3.7104,3.7104,3.7104,0,3.6438,3.6515,3.6536,3.659,3.6676,3.6683,3.6767,3.6789,3.6826,3.6883,3.6873,3.6926,3.6936,3.6991,3.6999,3.7082,3.7097,3.7104,3.7105,3.7104,3.7102,3.7122,3.7113,3.7109,3.7108,3.7107,3.7106,0,3.6558,3.6576,3.6671,3.6716,3.6729,3.679,3.6828,3.6879,3.6895,3.6967,3.6984,3.7009,3.7074,3.7088,3.7165,3.717,3.7266,3.7261,3.7251,3.7249,3.7305,3.7299,3.7493,3.7517,3.7362,3.7363,3.7365,0,3.6643,3.6702,3.6754,3.6791,3.6818,3.6879,3.6917,3.6926,3.6966,3.7021,3.7065,3.7129,3.7179,3.7283,3.7307,3.7365,3.7358,3.7422,3.7367,3.7363,3.7355,3.735,3.7354,3.7432,3.7433,3.7435,3.7436,0,3.6791,3.6796,3.6852,3.6911,3.6956,3.7003,3.7047,3.7078,3.7093,3.7138,3.7204,3.7243,3.7321,3.7383,3.7441,3.7465,3.7452,3.7454,3.747,3.7467,3.7457,3.746,3.7276,3.7448,3.7447,3.7446,3.7446,3.7445,3.6894,3.6944,3.6988,3.705,3.7084,3.7125,3.7175,3.7197,3.7252,3.7316,3.7318,3.7389,3.7431,3.7508,3.7536,3.759,3.757,3.7594,3.76,3.7605,3.7608,3.7452,3.7602,3.7601,3.7601,3.7601,3.76,0,3.7038,3.7065,3.7122,3.7184,3.7232,3.7217,3.7265,3.7306,3.7368,3.7409,3.7459,3.7534,3.7593,3.7622,3.7681,3.7719,3.7714,3.7734,3.7729,3.7735,3.7624,3.7603,3.7736,3.7736,3.7736,3.7736,3.7736,3.7736,3.7118,3.7202,3.7212,3.7312,3.7339,3.7408,3.7436,3.7474,3.7506,3.759,3.7639,3.7658,3.7694,3.7755,3.7808,3.7815,3.7836,3.7857,3.7861,3.7757,3.7743,3.7729,3.7709,3.7863,3.7863,3.7966,3.7967,3.7968]},{"header":{"parameterUnit":"m.s-1","parameterCategory":1,"la1":30.2991,"la2":30.254,"lo1":-89.0895,"lo2":-89.0444,"dy":0.0017,"dx":0.0017,"nx":28,"ny":28,"refTime":"2024-07-17T09:00:00:Z","depth":0,"parameterNumber":3,"parameterNumberName":"V-component_of_WINDS"},"data":[0,0,0,0,0,0,0,0,0,0,0,0,0,0,0,0,0,0,0,0,0,0,0,0,0,0,0,0,0,0,0,0,0,0,0,0,0,0,0,0,0,0,0,0,0,0,0,0,0,0,0,0,0,0,0,0,0,0,2.326,2.3262,0,2.3481,2.3483,2.3486,2.3532,2.3531,2.3529,2.3527,2.3754,2.3762,2.3769,0,0,0,0,0,0,0,0,0,0,0,0,0,2.2879,2.2885,2.326,2.3263,2.3265,2.348,2.3483,2.3486,2.3532,2.353,2.3528,2.3527,2.3752,2.3761,2.377,0,0,0,0,0,0,0,0,0,0,0,0,0,2.3066,2.2888,2.3259,2.3314,2.3321,2.3479,2.3483,2.3487,2.3533,2.353,2.3528,2.3526,2.3749,2.376,2.3771,2.389,0,0,2.3806,2.3811,0,0,0,0,0,0,0,0,2.3056,2.308,2.3304,2.3311,2.3319,2.3476,2.3432,2.3622,2.3533,2.3453,2.3527,2.3524,2.3664,2.3682,2.3729,2.3901,2.3911,2.3807,2.3814,2.3818,2.3822,0,0,0,0,0,0,0,2.3042,2.3071,2.3347,2.3307,2.3316,2.3328,2.3352,2.3468,2.3569,2.346,2.3463,2.3489,2.3668,2.3718,2.3734,2.3914,2.3806,2.3816,2.3823,2.3828,2.4193,2.4196,0,0,0,0,0,0,2.302,2.306,2.334,2.3354,2.3179,2.3337,2.3364,2.3428,2.3568,2.3587,2.3491,2.349,2.37,2.3721,2.3743,2.3891,2.3818,2.3829,2.3835,2.419,2.4194,2.4197,0,0,0,0,0,0,2.3011,2.3044,2.3331,2.3208,2.3245,2.3346,2.3418,2.3434,2.3484,2.3592,2.361,2.3523,2.3698,2.3727,2.3853,2.3899,2.3834,2.3844,2.4187,2.4191,2.4195,2.4188,0,0,0,0,0,0,2.3,2.3041,2.3088,2.3209,2.3252,2.3438,2.3421,2.344,2.3504,2.3505,2.3627,2.3645,2.3699,2.3836,2.3864,2.3914,2.3853,2.4183,2.4189,2.4194,2.4184,2.4191,2.4197,0,0,0,0,0,2.2986,2.3077,2.309,2.3123,2.3312,2.3441,2.3465,2.3525,2.3507,2.3555,2.3623,2.3641,2.3889,2.3848,2.3881,2.3934,2.4181,2.4187,2.4194,2.4182,2.419,2.4197,0,0,0,0,0,0,2.296,2.3094,2.311,2.3242,2.3329,2.3448,2.351,2.3532,2.3627,2.3624,2.3694,2.3721,2.3843,2.3901,2.3853,2.4056,2.4034,2.4047,2.4014,2.4023,2.4029,2.4013,2.3863,0,0,0,0,0,2.2969,2.3062,2.3175,2.3281,2.3324,2.3409,2.3467,2.3505,2.3599,2.3636,2.3714,2.3804,2.3902,2.3966,2.4062,2.4193,2.422,2.4245,2.4252,2.4257,2.4268,2.434,2.4352,2.4218,2.4218,2.4218,0,0,2.299,2.3075,2.313,2.3278,2.335,2.3444,2.344,2.3541,2.3611,2.3652,2.3775,2.3835,2.394,2.4069,2.4129,2.4121,2.431,2.4265,2.4268,2.4277,2.4348,2.436,2.4371,2.4223,2.4222,2.4221,0,0,2.3077,2.315,2.3246,2.3318,2.3427,2.3483,2.3505,2.3621,2.3662,2.3787,2.3819,2.3903,2.4071,2.4145,2.4204,2.4315,2.4335,2.4344,2.4379,2.4448,2.4459,2.4468,2.4508,2.4521,2.4355,2.4355,2.4355,0,2.3089,2.3233,2.3293,2.3392,2.3456,2.3495,2.3592,2.3659,2.3794,2.3837,2.3826,2.4036,2.411,2.4255,2.4282,2.4329,2.4357,2.4331,2.4452,2.4463,2.4472,2.4511,2.4525,2.4355,2.4355,2.4355,2.4355,0,2.3242,2.3341,2.3406,2.3534,2.3605,2.3702,2.3777,2.3841,2.3872,2.3929,2.4055,2.4144,2.4259,2.4296,2.4328,2.4446,2.4437,2.4438,2.4418,2.4485,2.4522,2.4537,2.4356,2.4356,2.4355,2.4355,0,0,2.332,2.3478,2.3501,2.3559,2.3681,2.3759,2.3857,2.3968,2.4022,2.4113,2.4197,2.4337,2.4338,2.4405,2.4445,2.4506,2.4588,2.45,2.4504,2.4513,2.4722,2.4721,2.4737,2.4601,2.4604,2.4607,2.4713,0,2.3421,2.3599,2.3655,2.3803,2.3894,2.3932,2.4018,2.4101,2.4156,2.4242,2.4303,2.4401,2.4395,2.4436,2.4497,2.4565,2.4631,2.4558,2.468,2.4684,2.4653,2.4757,2.4756,2.4852,2.4728,2.4731,2.4733,0,2.3563,2.3655,2.3812,2.3921,2.3961,2.4037,2.4143,2.4224,2.4319,2.4355,2.4429,2.4463,2.4567,2.454,2.4683,2.4632,2.4686,2.4726,2.4731,2.4745,2.4713,2.4773,2.4885,2.4899,2.4756,2.4754,2.4753,0,2.3603,2.3767,2.3881,2.393,2.406,2.4112,2.4168,2.4261,2.4324,2.4416,2.4457,2.456,2.4617,2.4695,2.4757,2.4731,2.4895,2.4873,2.4927,2.4926,2.4961,2.4958,2.5082,2.4994,2.4994,2.4994,2.4994,0,2.3711,2.3805,2.3901,2.3972,2.4078,2.4141,2.4245,2.4303,2.4385,2.4467,2.4506,2.4582,2.4658,2.4745,2.4793,2.4904,2.493,2.4961,2.4973,2.4958,2.4954,2.4994,2.4989,2.4998,2.4997,2.4996,2.4996,0,2.3774,2.3842,2.397,2.4081,2.4111,2.4185,2.428,2.435,2.4406,2.4509,2.4537,2.4625,2.4728,2.4797,2.4929,2.4962,2.5082,2.5093,2.505,2.5056,2.5107,2.5101,2.5262,2.5286,2.5181,2.5182,2.5183,0,2.3838,2.3912,2.403,2.4088,2.4144,2.4237,2.43,2.4365,2.4429,2.4542,2.4598,2.4703,2.4791,2.4954,2.503,2.5131,2.5144,2.5193,2.516,2.5142,2.5145,2.514,2.5147,2.5199,2.52,2.52,2.5201,0,2.3945,2.3974,2.4064,2.4166,2.424,2.4324,2.4407,2.4452,2.453,2.4601,2.4707,2.4775,2.4909,2.5013,2.5121,2.5179,2.5203,2.5211,2.5229,2.5214,2.5186,2.5202,2.5065,2.5207,2.5206,2.5206,2.5206,2.5205,2.4011,2.4077,2.417,2.4269,2.4338,2.4415,2.4485,2.4549,2.4638,2.4752,2.4784,2.4894,2.4986,2.5133,2.5192,2.5279,2.5274,2.53,2.5307,2.5312,2.5312,2.5172,2.5299,2.5299,2.5299,2.5298,2.5298,0,2.4119,2.418,2.427,2.4385,2.4462,2.4477,2.4569,2.4633,2.4729,2.4813,2.4898,2.5018,2.5119,2.5201,2.5305,2.5359,2.5372,2.5384,2.5381,2.5393,2.5311,2.5285,2.5371,2.5371,2.5371,2.5371,2.5371,2.5371,2.4184,2.4297,2.4337,2.4484,2.4545,2.4652,2.4703,2.4774,2.4841,2.4973,2.5057,2.511,2.5193,2.5302,2.5395,2.5417,2.5453,2.5462,2.5486,2.5407,2.5399,2.5392,2.5367,2.5469,2.5469,2.5561,2.5562,2.5563]}]]